Tracking 35019 objects as of 13-Aug-2026
HD Live streaming from Space Station
objects crossing your sky now

METEOR M2-4

Track METEOR M2-4 now!
10-day predictions
METEOR M2-4 is classified as:


NORAD ID: 59051
Int'l Code: 2024-039A
Launch date: February 29, 2024
Source: Commonwealth of Independent States (former USSR) (CIS)
Launch site: VOSTOCHNY COSMODROME (VOSTO)

Uplink (MHz):
Downlink (MHz): 137.100/137.900*
Beacon (MHz):
Mode: 72K*/80K LRPT HRPT
Call sign:
Status:

Your satellite tracking list
Your tracking list is empty




NASA's NSSDC Master Catalog

Two Line Element Set (TLE):
1 59051U 24039A   26224.59760035 -.00000022  00000-0  99178-5 0  9993
2 59051  98.7062 183.1987 0007392  16.1101 344.0310 14.22434594127285
Source of the keplerian elements: AFSPC